Location: Windsor
(43.2292°N, 89.3015°W)
Time: 19:05:38
(UTC+00:00)

RS-44 - Pass Details

Date: 04 July 2022
Orbit: 1175 x 1510 km, 82.5° (Epoch: 16 August)

Event Time Altitude Azimuth Distance (km) Brightness Sun altitude
Rises 03:50:37 0° 234° (SW) 4,390 ? -17.4°
Reaches altitude 10° 03:54:08 10° 248° (WSW) 3,474 ? -17.7°
Maximum altitude 04:00:29 23° 298° (WNW) 2,677 ? -18.3°
Drops below altitude 10° 04:07:08 10° 348° (NNW) 3,641 ? -18.8°
Sets 04:10:58 0° 2° (N) 4,650 ? -19.2°
